AUA18Z LOWW-EDDM

Flight info

Callsign AUA18Z
Flight time N/A
Altitude 30000
Route SOVIL DCT SITNI DCT BAGSI DCT MATIG DCT AMADI Q113 NAPSA NAPSA1B
Aircraft A320/M-SDE3FGHIRWY/LB1

Departure

Time 2026-04-25 13:30
Airport Vienna International Airport (LOWW)

Arrival

Time N/A
Airport Munich Airport (EDDM)
Time Latitude Longitude Altitude Speed Heading
2026-04-25 12:13 48.11933 16.55636 603 ft 0 kts 27°
2026-04-25 13:19 48.11912 16.55621 621 ft 4 kts 25°
2026-04-25 13:19 48.11889 16.55603 622 ft 4 kts 35°
2026-04-25 13:19 48.11870 16.55576 619 ft 4 kts 64°
2026-04-25 13:19 48.11865 16.55553 620 ft 4 kts 101°
2026-04-25 13:20 48.11869 16.55535 616 ft 0 kts 116°
2026-04-25 13:23 48.11868 16.55536 616 ft 1 kts 116°
2026-04-25 13:23 48.11863 16.55553 620 ft 2 kts 116°
2026-04-25 13:23 48.11858 16.55568 617 ft 1 kts 116°
2026-04-25 13:24 48.11856 16.55575 607 ft 2 kts 116°
2026-04-25 13:24 48.11844 16.55612 615 ft 6 kts 116°
2026-04-25 13:24 48.11820 16.55684 618 ft 10 kts 116°
2026-04-25 13:24 48.11784 16.55793 614 ft 12 kts 116°
2026-04-25 13:25 48.11740 16.55926 618 ft 17 kts 116°
2026-04-25 13:25 48.11690 16.56082 614 ft 18 kts 115°
2026-04-25 13:25 48.11636 16.56243 616 ft 15 kts 116°
2026-04-25 13:25 48.11584 16.56404 617 ft 20 kts 115°
2026-04-25 13:26 48.11517 16.56615 615 ft 22 kts 118°
2026-04-25 13:26 48.11456 16.56793 623 ft 13 kts 116°
2026-04-25 13:26 48.11412 16.56836 617 ft 6 kts 194°
2026-04-25 13:26 48.11385 16.56816 618 ft 1 kts 208°
2026-04-25 13:27 48.11383 16.56814 619 ft 0 kts 208°
2026-04-25 13:27 48.11379 16.56811 620 ft 0 kts 208°
2026-04-25 13:27 48.11376 16.56808 621 ft 3 kts 208°
2026-04-25 13:27 48.11322 16.56765 623 ft 13 kts 208°
2026-04-25 13:28 48.11295 16.56666 624 ft 11 kts 265°
2026-04-25 13:28 48.11293 16.56588 619 ft 11 kts 268°
2026-04-25 13:28 48.11298 16.56419 623 ft 14 kts 279°
2026-04-25 13:28 48.11329 16.56271 626 ft 13 kts 294°
2026-04-25 13:29 48.11333 16.56257 624 ft 0 kts 294°
2026-04-25 13:29 48.11335 16.56253 623 ft 6 kts 294°
2026-04-25 13:29 48.11463 16.55852 625 ft 79 kts 295°
2026-04-25 13:30 48.12233 16.53400 1140 ft 148 kts 283°
2026-04-25 13:30 48.12042 16.51930 1975 ft 151 kts 243°
2026-04-25 13:30 48.11360 16.50631 2477 ft 166 kts 238°
2026-04-25 13:31 48.10105 16.47299 3260 ft 206 kts 248°
2026-04-25 13:31 48.09422 16.45257 3688 ft 233 kts 243°
2026-04-25 13:31 48.08492 16.43102 3968 ft 255 kts 239°
2026-04-25 13:31 48.07461 16.40922 4004 ft 259 kts 238°
2026-04-25 13:32 48.06410 16.38787 4036 ft 261 kts 237°
2026-04-25 13:32 48.05304 16.36572 4817 ft 266 kts 238°
2026-04-25 13:32 48.04231 16.34332 5975 ft 264 kts 243°
2026-04-25 13:32 48.03519 16.31819 6934 ft 262 kts 259°
2026-04-25 13:33 48.03299 16.29115 7797 ft 265 kts 273°
2026-04-25 13:33 48.03356 16.26359 8776 ft 265 kts 275°
2026-04-25 13:33 48.03414 16.23567 9614 ft 271 kts 273°
2026-04-25 13:33 48.03469 16.20706 10296 ft 283 kts 273°
2026-04-25 13:34 48.03526 16.17640 10635 ft 307 kts 274°
2026-04-25 13:34 48.03587 16.14348 10982 ft 327 kts 273°
2026-04-25 13:34 48.03649 16.10898 11625 ft 334 kts 273°
2026-04-25 13:34 48.03706 16.07421 12479 ft 336 kts 273°
2026-04-25 13:35 48.03760 16.03896 13229 ft 342 kts 272°
2026-04-25 13:35 48.03814 16.00374 13988 ft 345 kts 272°
2026-04-25 13:35 48.03871 15.96773 14671 ft 348 kts 272°
2026-04-25 13:35 48.03929 15.93138 15374 ft 351 kts 272°
2026-04-25 13:36 48.03985 15.89482 16072 ft 353 kts 272°
2026-04-25 13:36 48.04038 15.85809 16822 ft 354 kts 272°
2026-04-25 13:36 48.04090 15.82118 17512 ft 358 kts 272°
2026-04-25 13:36 48.04141 15.78391 18171 ft 361 kts 272°
2026-04-25 13:37 48.04192 15.74610 18762 ft 365 kts 272°
2026-04-25 13:37 48.04242 15.70806 19354 ft 368 kts 272°
2026-04-25 13:37 48.04291 15.66968 19968 ft 370 kts 271°
2026-04-25 13:37 48.04339 15.63113 20576 ft 373 kts 271°
2026-04-25 13:38 48.04389 15.59220 21144 ft 376 kts 271°
2026-04-25 13:38 48.04438 15.55299 21733 ft 379 kts 271°
2026-04-25 13:38 48.04487 15.51349 22302 ft 382 kts 271°
2026-04-25 13:38 48.04534 15.47373 22865 ft 384 kts 271°
2026-04-25 13:39 48.04577 15.43370 23387 ft 387 kts 271°
2026-04-25 13:39 48.04621 15.39338 23865 ft 389 kts 271°
2026-04-25 13:39 48.04667 15.35276 24268 ft 392 kts 271°
2026-04-25 13:39 48.04725 15.31194 24650 ft 395 kts 271°
2026-04-25 13:40 48.04795 15.27069 25056 ft 398 kts 271°
2026-04-25 13:40 48.04868 15.22929 25459 ft 400 kts 271°
2026-04-25 13:40 48.04940 15.18774 25860 ft 402 kts 271°
2026-04-25 13:40 48.05009 15.14571 26247 ft 404 kts 271°
2026-04-25 13:41 48.05074 15.10368 26629 ft 406 kts 271°
2026-04-25 13:41 48.05135 15.06145 27005 ft 407 kts 271°
2026-04-25 13:41 48.05194 15.01905 27397 ft 409 kts 270°
2026-04-25 13:41 48.05246 14.97817 27742 ft 411 kts 270°
2026-04-25 13:42 48.05298 14.93443 28108 ft 413 kts 270°
2026-04-25 13:42 48.05349 14.89137 28449 ft 414 kts 270°
2026-04-25 13:42 48.05403 14.84823 28776 ft 416 kts 270°
2026-04-25 13:42 48.05452 14.80494 29094 ft 418 kts 270°
2026-04-25 13:43 48.05493 14.76147 29393 ft 419 kts 270°
2026-04-25 13:43 48.05529 14.71778 29676 ft 421 kts 270°
2026-04-25 13:43 48.05561 14.67392 29946 ft 422 kts 270°
2026-04-25 13:44 48.05616 14.58713 30050 ft 413 kts 270°
2026-04-25 13:44 48.05671 14.50162 30052 ft 411 kts 270°
2026-04-25 13:45 48.05721 14.41680 30054 ft 411 kts 270°
2026-04-25 13:45 48.05760 14.33076 30052 ft 411 kts 270°
2026-04-25 13:46 48.05795 14.24600 30054 ft 410 kts 270°
2026-04-25 13:46 48.05827 14.16076 30053 ft 410 kts 270°
2026-04-25 13:47 48.05849 14.07549 30040 ft 410 kts 269°
2026-04-25 13:47 48.05864 13.99015 30039 ft 410 kts 269°
2026-04-25 13:47 48.05871 13.94765 29663 ft 407 kts 269°
2026-04-25 13:48 48.05878 13.90516 28568 ft 410 kts 269°
2026-04-25 13:48 48.05883 13.86236 27428 ft 415 kts 269°
2026-04-25 13:48 48.05885 13.81927 26618 ft 412 kts 269°
2026-04-25 13:48 48.05886 13.77658 25887 ft 409 kts 269°
2026-04-25 13:49 48.05885 13.73435 25185 ft 405 kts 269°
2026-04-25 13:49 48.05882 13.69239 24497 ft 403 kts 269°
2026-04-25 13:49 48.05877 13.65063 23827 ft 400 kts 269°
2026-04-25 13:49 48.05867 13.60923 23104 ft 397 kts 269°
2026-04-25 13:50 48.05856 13.56813 22411 ft 393 kts 269°
2026-04-25 13:50 48.05871 13.52745 21772 ft 390 kts 271°
2026-04-25 13:50 48.06006 13.48725 21158 ft 386 kts 274°
2026-04-25 13:50 48.06226 13.44738 20554 ft 383 kts 275°
2026-04-25 13:51 48.06482 13.40796 19987 ft 379 kts 276°
2026-04-25 13:51 48.06741 13.36885 19440 ft 376 kts 276°
2026-04-25 13:51 48.06984 13.33012 18892 ft 373 kts 275°
2026-04-25 13:51 48.07209 13.29163 18357 ft 371 kts 275°
2026-04-25 13:52 48.07419 13.25329 17753 ft 368 kts 275°
2026-04-25 13:52 48.07617 13.21531 17162 ft 366 kts 275°
2026-04-25 13:52 48.07809 13.17745 16576 ft 363 kts 275°
2026-04-25 13:52 48.07998 13.13997 16017 ft 361 kts 275°
2026-04-25 13:53 48.08186 13.10261 15461 ft 359 kts 275°
2026-04-25 13:53 48.08372 13.06555 14898 ft 357 kts 275°
2026-04-25 13:53 48.08555 13.02864 14361 ft 355 kts 275°
2026-04-25 13:53 48.08735 12.99202 13832 ft 353 kts 275°
2026-04-25 13:54 48.08910 12.95629 13253 ft 351 kts 275°
2026-04-25 13:54 48.09089 12.92006 12661 ft 348 kts 275°
2026-04-25 13:54 48.09232 12.89627 12287 ft 346 kts 276°
2026-04-25 13:54 48.09526 12.86073 11710 ft 343 kts 278°
2026-04-25 13:55 48.09874 12.82553 11130 ft 340 kts 279°
2026-04-25 13:55 48.10236 12.79071 10573 ft 337 kts 279°
2026-04-25 13:55 48.10591 12.75615 10015 ft 335 kts 279°
2026-04-25 13:55 48.10928 12.72223 9801 ft 322 kts 278°
2026-04-25 13:56 48.11240 12.68993 9655 ft 307 kts 278°
2026-04-25 13:56 48.11534 12.65897 9522 ft 293 kts 278°
2026-04-25 13:56 48.11810 12.62939 9388 ft 282 kts 278°
2026-04-25 13:56 48.12073 12.60092 9232 ft 272 kts 278°
2026-04-25 13:57 48.12331 12.57303 9056 ft 270 kts 278°
2026-04-25 13:57 48.12501 12.55458 8935 ft 269 kts 278°
2026-04-25 13:57 48.12842 12.51755 8694 ft 268 kts 278°
2026-04-25 13:57 48.13095 12.48999 8513 ft 267 kts 278°
2026-04-25 13:58 48.13346 12.46255 8344 ft 266 kts 278°
2026-04-25 13:58 48.13595 12.43518 8160 ft 265 kts 278°
2026-04-25 13:58 48.13846 12.40784 8010 ft 265 kts 278°
2026-04-25 13:58 48.14148 12.38075 7858 ft 263 kts 286°
2026-04-25 13:59 48.14899 12.35590 7717 ft 263 kts 303°
2026-04-25 13:59 48.16128 12.33570 7560 ft 265 kts 319°
2026-04-25 13:59 48.17724 12.32164 7411 ft 267 kts 332°
2026-04-25 13:59 48.19406 12.30966 7264 ft 267 kts 331°
2026-04-25 14:00 48.21080 12.29767 7112 ft 266 kts 331°
2026-04-25 14:00 48.22744 12.28569 6967 ft 264 kts 332°
2026-04-25 14:00 48.24462 12.27590 6810 ft 267 kts 347°
2026-04-25 14:00 48.26332 12.27663 6671 ft 275 kts 11°
2026-04-25 14:01 48.28069 12.28931 6513 ft 283 kts 36°
2026-04-25 14:01 48.29305 12.31248 6369 ft 290 kts 63°
2026-04-25 14:01 48.29795 12.34178 6214 ft 292 kts 83°
2026-04-25 14:01 48.30243 12.37120 6054 ft 288 kts 60°
2026-04-25 14:02 48.31535 12.39240 5910 ft 269 kts 26°
2026-04-25 14:02 48.33201 12.40147 5748 ft 252 kts
2026-04-25 14:02 48.34942 12.40169 5594 ft 244 kts 347°
2026-04-25 14:02 48.36018 12.39738 5493 ft 240 kts 334°
2026-04-25 14:03 48.37752 12.37756 5284 ft 235 kts 304°
2026-04-25 14:03 48.38392 12.35559 5131 ft 234 kts 280°
2026-04-25 14:03 48.38391 12.33114 5027 ft 237 kts 265°
2026-04-25 14:03 48.38207 12.30670 5008 ft 235 kts 265°
2026-04-25 14:04 48.38028 12.28231 5014 ft 236 kts 265°
2026-04-25 14:04 48.37850 12.25766 5012 ft 237 kts 265°
2026-04-25 14:04 48.37673 12.23311 5008 ft 235 kts 265°
2026-04-25 14:04 48.37494 12.20852 5011 ft 238 kts 265°
2026-04-25 14:05 48.37312 12.18427 5005 ft 237 kts 265°
2026-04-25 14:05 48.37130 12.15961 5011 ft 238 kts 265°
2026-04-25 14:05 48.36950 12.13507 5011 ft 236 kts 265°
2026-04-25 14:05 48.36774 12.11104 4999 ft 223 kts 265°
2026-04-25 14:06 48.36608 12.08860 5006 ft 210 kts 265°
2026-04-25 14:06 48.36449 12.06709 4868 ft 206 kts 265°
2026-04-25 14:06 48.36291 12.04570 4629 ft 204 kts 265°
2026-04-25 14:06 48.36133 12.02438 4358 ft 208 kts 264°
2026-04-25 14:07 48.35971 12.00270 4093 ft 209 kts 264°
2026-04-25 14:07 48.35808 11.98076 3794 ft 212 kts 265°
2026-04-25 14:07 48.35644 11.95886 3529 ft 212 kts 265°
2026-04-25 14:07 48.35477 11.93661 3243 ft 213 kts 264°